GW6902 Weather Reports


time (UTC)temp
F
wind
direction
speed
knots
gust
knots
rain 1hr
in
rain 24hr
in
rain mn
in
humidity
%
barometer
mb
20260504214706 80 40 0.9 2.6 0.00 0.00 0.00 35 1012.0
20260504214203 80 40 0.9 0.9 0.00 0.00 0.00 35 1012.1
20260504213700 79 45 0.9 0.9 0.00 0.00 0.00 36 1011.9
20260504213157 78 141 0.0 1.7 0.00 0.00 0.00 37 1012.0
20260504212653 79 108 0.9 1.7 0.00 0.00 0.00 35 1012.2
20260504212150 79 137 0.0 1.7 0.00 0.00 0.00 35 1012.2
20260504211647 80 69 0.0 1.7 0.00 0.00 0.00 33 1012.4
20260504211143 80 94 0.0 0.9 0.00 0.00 0.00 34 1012.2
20260504210642 79 130 0.0 0.9 0.00 0.00 0.00 36 1012.0
20260504210138 80 232 1.7 1.7 0.00 0.00 0.00 38 1012.3
20260504205635 81 97 0.9 1.7 0.00 0.00 0.00 33 1012.2
20260504205132 81 286 0.9 0.9 0.00 0.00 0.00 34 1012.2
20260504204631 81 274 0.0 0.9 0.00 0.00 0.00 37 1012.1
20260504204130 80 67 0.9 0.9 0.00 0.00 0.00 34 1011.8
20260504203628 80 49 0.9 1.7 0.00 0.00 0.00 35 1012.0
20260504203125 80 50 1.7 1.7 0.00 0.00 0.00 34 1012.1
20260504202625 81 89 0.9 1.7 0.00 0.00 0.00 33 1011.9
20260504202123 81 73 0.9 0.9 0.00 0.00 0.00 31 1012.0
20260504201619 80 88 0.9 1.7 0.00 0.00 0.00 34 1012.0
20260504201117 80 63 1.7 2.6 0.00 0.00 0.00 31 1012.1
20260504200614 79 74 0.9 0.9 0.00 0.00 0.00 33 1012.3
20260504200110 80 234 0.0 2.6 0.00 0.00 0.00 36 1012.1
20260504195607 80 16 0.9 1.7 0.00 0.00 0.00 31 1012.2
20260504195103 80 145 0.9 0.9 0.00 0.00 0.00 33 1012.1
20260504194600 80 149 0.0 2.6 0.00 0.00 0.00 33 1012.3
20260504194055 81 114 0.9 0.9 0.00 0.00 0.00 32 1012.1
20260504193552 81 71 0.0 0.9 0.00 0.00 0.00 35 1012.2
20260504193051 81 41 0.9 0.9 0.00 0.00 0.00 32 1012.4
20260504192548 81 86 0.0 0.9 0.00 0.00 0.00 34 1012.2
20260504192046 81 89 0.9 1.7 0.00 0.00 0.00 33 1012.2
20260504191544 81 68 0.0 2.6 0.00 0.00 0.00 32 1012.0
20260504191040 81 92 0.9 0.9 0.00 0.00 0.00 32 1012.1
20260504190537 80 52 0.0 1.7 0.00 0.00 0.00 33 1012.3
20260504190032 78 27 0.0 1.7 0.00 0.00 0.00 37 1011.9
20260504185530 80 189 1.7 1.7 0.00 0.00 0.00 33 1012.1
20260504185026 79 255 0.9 0.9 0.00 0.00 0.00 33 1012.0
20260504184521 79 131 0.9 1.7 0.00 0.00 0.00 33 1012.0
20260504184017 79 169 0.0 0.9 0.00 0.00 0.00 35 1012.3
20260504183515 79 180 0.9 0.9 0.00 0.00 0.00 32 1012.2
20260504183013 78 173 0.9 1.7 0.00 0.00 0.00 34 1012.3
20260504182509 79 117 0.9 0.9 0.00 0.00 0.00 34 1012.4
20260504182007 78 178 0.9 0.9 0.00 0.00 0.00 34 1012.5
20260504181503 77 197 0.9 1.7 0.00 0.00 0.00 37 1012.5
20260504181002 76 211 0.9 1.7 0.00 0.00 0.00 37 1012.4
20260504180501 77 237 1.7 5.2 0.00 0.00 0.00 36 1012.3
20260504175958 77 188 0.9 1.7 0.00 0.00 0.00 36 1012.5
20260504175455 76 213 0.9 2.6 0.00 0.00 0.00 36 1012.3
20260504174953 75 218 0.9 0.9 0.00 0.00 0.00 36 1012.5
20260504174450 75 232 1.7 1.7 0.00 0.00 0.00 37 1012.4
20260504173947 76 181 2.6 2.6 0.00 0.00 0.00 37 1012.2
20260504173443 75 124 0.9 0.9 0.00 0.00 0.00 36 1012.6
20260504172941 76 37 0.9 1.7 0.00 0.00 0.00 34 1012.5
20260504172437 76 130 0.0 0.9 0.00 0.00 0.00 36 1012.6
20260504171934 76 148 0.0 0.9 0.00 0.00 0.00 37 1012.3
20260504171431 75 141 0.0 0.0 0.00 0.00 0.00 38 1012.5
20260504170928 74 137 1.7 1.7 0.00 0.00 0.00 37 1012.6
20260504170424 74 127 0.0 0.9 0.00 0.00 0.00 38 1012.5
20260504160343 72 221 0.0 0.0 0.00 0.00 0.00 39 1012.3
20260504150808 66 220 0.0 0.0 0.00 0.00 0.00 52 1012.0
20260504150304 66 221 0.0 0.0 0.00 0.00 0.00 50 1012.0
20260504141235 58 220 0.0 0.0 0.00 0.00 0.00 50 1011.7
20260504140731 57 220 0.0 0.0 0.00 0.00 0.00 52 1011.7
20260504140226 57 220 0.0 0.0 0.00 0.00 0.00 50 1011.8
20260504130655 56 220 0.0 0.0 0.00 0.00 0.00 46 1011.3
20260504130151 57 220 0.0 0.9 0.00 0.00 0.00 43 1011.4
20260504120115 62 190 0.9 1.7 0.00 0.00 0.00 35 1011.2
20260504110543 63 207 0.9 1.7 0.00 0.00 0.00 34 1011.0
20260504100505 64 205 1.7 2.6 0.00 0.00 0.00 34 1011.2
20260504081857 64 195 0.9 1.7 0.00 0.00 0.00 36 1011.3
20260504081354 64 195 0.0 0.9 0.00 0.00 0.00 36 1011.0
20260504080850 64 190 0.0 0.9 0.00 0.00 0.00 35 1011.2
20260504080348 64 173 0.9 2.6 0.00 0.00 0.00 35 1011.2
20260504070315 62 189 0.9 1.7 0.00 0.00 0.00 39 1011.4
20260504060235 58 163 0.0 0.9 0.00 0.00 0.00 56 1011.7
20260504050703 64 160 0.9 0.9 0.00 0.00 0.00 42 1011.7
20260504050200 64 159 0.0 1.7 0.00 0.00 0.00 41 1011.5
20260504045658 64 154 0.9 0.9 0.00 0.00 0.00 43 1011.7
20260504045157 64 154 0.0 0.9 0.00 0.00 0.00 42 1011.7
20260504044655 64 147 0.9 0.9 0.00 0.00 0.00 43 1011.6
20260504044152 64 144 0.0 0.9 0.00 0.00 0.00 45 1011.4
20260504043649 63 142 0.0 0.9 0.00 0.00 0.00 45 1011.3
20260504043146 63 134 0.0 0.9 0.00 0.00 0.00 46 1011.6
20260504042644 63 120 0.0 0.9 0.00 0.00 0.00 46 1011.6
20260504042140 63 120 0.0 0.0 0.00 0.00 0.00 48 1011.6
20260504041636 63 120 0.0 0.9 0.00 0.00 0.00 48 1012.0
20260504041132 63 120 0.0 0.9 0.00 0.00 0.00 48 1011.9
20260504040630 63 119 0.9 0.9 0.00 0.00 0.00 48 1011.7
20260504040127 64 119 0.0 0.9 0.00 0.00 0.00 47 1011.7
20260504035623 64 119 0.0 0.0 0.00 0.00 0.00 47 1011.5
20260504035120 65 119 0.0 0.0 0.00 0.00 0.00 45 1011.6
20260504034618 66 119 0.0 0.0 0.00 0.00 0.00 44 1011.8
20260504034114 66 119 0.0 0.0 0.00 0.00 0.00 43 1011.3
20260504033612 66 119 0.9 0.9 0.00 0.00 0.00 41 1011.4
20260504033109 66 107 0.0 0.0 0.00 0.00 0.00 43 1011.6
20260504032606 67 107 0.0 0.0 0.00 0.00 0.00 43 1011.6
20260504032103 68 107 0.0 0.0 0.00 0.00 0.00 40 1011.6
20260504031600 67 107 0.0 0.0 0.00 0.00 0.00 41 1011.4
20260504031056 68 107 0.0 0.0 0.00 0.00 0.00 40 1011.4
20260504030553 68 107 0.0 0.0 0.00 0.00 0.00 38 1011.4
20260504030050 69 107 0.0 0.0 0.00 0.00 0.00 37 1011.7
20260504025547 70 107 0.0 0.0 0.00 0.00 0.00 36 1011.7
20260504025044 71 107 0.0 0.0 0.00 0.00 0.00 31 1011.8
20260504024541 71 107 0.0 0.0 0.00 0.00 0.00 30 1011.7
20260504024038 72 107 0.0 0.0 0.00 0.00 0.00 29 1011.7
20260504023534 73 107 0.0 0.0 0.00 0.00 0.00 28 1011.7
20260504023030 73 107 0.0 0.0 0.00 0.00 0.00 27 1011.8
20260504022526 74 107 0.0 0.0 0.00 0.00 0.00 27 1011.8
20260504022023 75 107 0.0 0.0 0.00 0.00 0.00 25 1011.9
20260504021520 75 107 0.0 0.0 0.00 0.00 0.00 24 1011.8
20260504021017 76 107 0.0 0.0 0.00 0.00 0.00 24 1012.0
20260504020514 76 107 0.0 0.0 0.00 0.00 0.00 24 1011.8
20260504020011 76 107 0.0 0.9 0.00 0.00 0.00 24 1012.0
20260504015507 76 107 0.0 0.0 0.00 0.00 0.00 26 1011.9
20260504015003 76 107 0.0 0.9 0.00 0.00 0.00 24 1012.0
20260504014459 76 106 0.0 0.0 0.00 0.00 0.00 25 1012.1
20260504013956 76 106 1.7 1.7 0.00 0.00 0.00 27 1012.3
20260504013455 77 106 1.7 1.7 0.00 0.00 0.00 25 1012.2
20260504012950 78 88 0.9 0.9 0.00 0.00 0.00 26 1012.4
20260504012448 79 88 0.9 0.9 0.00 0.00 0.00 25 1012.5
20260504011946 79 87 0.0 0.0 0.00 0.00 0.00 27 1012.8
20260504011442 78 87 0.9 0.9 0.00 0.00 0.00 27 1012.5
20260504010938 79 87 0.9 0.9 0.00 0.00 0.00 26 1012.4
20260504010434 80 87 0.0 0.9 0.00 0.00 0.00 27 1012.7
20260504005930 80 86 0.0 0.9 0.00 0.00 0.00 27 1012.7
20260504005427 79 87 0.0 0.0 0.00 0.00 0.00 28 1012.6
20260504004925 79 87 0.9 0.9 0.00 0.00 0.00 29 1012.7
20260504004422 80 87 0.0 0.0 0.00 0.00 0.00 27 1012.9
20260504003919 80 86 0.0 0.9 0.00 0.00 0.00 27 1012.9
20260504003415 81 80 0.0 0.0 0.00 0.00 0.00 29 1012.7
20260504002912 81 77 0.0 0.9 0.00 0.00 0.00 27 1012.9
20260504002409 81 77 0.0 0.0 0.00 0.00 0.00 33 1012.7
20260504001907 81 76 0.9 0.9 0.00 0.00 0.00 27 1012.9
20260504001404 82 75 0.9 0.9 0.00 0.00 0.00 25 1012.8
20260504000900 84 130 0.0 0.9 0.00 0.00 0.00 27 1012.9
20260504000358 83 131 0.0 0.9 0.00 0.00 0.00 30 1012.9
20260503235855 82 137 0.9 0.9 0.00 0.00 0.00 29 1012.9
20260503235353 82 136 0.0 0.9 0.00 0.00 0.00 27 1013.2
20260503234850 82 166 0.0 0.0 0.00 0.00 0.00 31 1013.0
20260503234348 82 167 0.0 0.9 0.00 0.00 0.00 29 1013.0
20260503233845 82 163 0.0 0.9 0.00 0.00 0.00 27 1013.2
20260503233341 84 113 0.9 0.9 0.00 0.00 0.00 29 1013.3
20260503232838 83 94 0.0 0.9 0.00 0.00 0.00 29 1013.2
20260503232335 82 91 0.0 0.9 0.00 0.00 0.00 27 1013.3
20260503231833 81 88 0.9 0.9 0.00 0.00 0.00 31 1013.5
20260503231330 81 117 0.9 1.7 0.00 0.00 0.00 29 1013.3
20260503230826 80 85 1.7 1.7 0.00 0.00 0.00 28 1013.5
20260503230323 80 223 1.7 2.6 0.00 0.00 0.00 29 1013.3
20260503225820 79 126 0.9 1.7 0.00 0.00 0.00 31 1013.6
20260503225316 79 254 1.7 2.6 0.00 0.00 0.00 29 1013.7
20260503224813 80 247 0.9 0.9 0.00 0.00 0.00 32 1013.8
20260503224310 79 261 0.0 0.9 0.00 0.00 0.00 31 1013.6
20260503223808 78 201 0.0 1.7 0.00 0.00 0.00 32 1013.9
20260503223305 79 264 0.9 2.6 0.00 0.00 0.00 28 1013.9
20260503222801 78 86 0.0 0.9 0.00 0.00 0.00 31 1014.1
20260503222259 78 107 0.9 1.7 0.00 0.00 0.00 35 1014.2
20260503221757 77 153 0.9 2.6 0.00 0.00 0.00 32 1014.0
20260503221255 77 91 0.0 0.9 0.00 0.00 0.00 33 1014.2
20260503220751 77 99 1.7 1.7 0.00 0.00 0.00 31 1014.3
20260503220248 77 100 0.9 0.9 0.00 0.00 0.00 31 1014.3
20260503215745 78 121 0.9 2.6 0.00 0.00 0.00 33 1014.6
20260503215242 78 170 0.0 0.9 0.00 0.00 0.00 34 1014.6